Weather Service Report


548 
ASUS44 KBMX 262110
RWRAL 
             
ALABAMA REGIONAL WEATHER ROUNDUP
NATIONAL WEATHER SERVICE BIRMINGHAM AL
300 PM CST SUN FEB 26 2017

NOTE: "FAIR" INDICATES FEW OR NO CLOUDS BELOW 12,000 FEET
WITH NO SIGNIFICANT WEATHER AND/OR OBSTRUCTIONS TO VISIBILITY.

THE REMARK "TC" DENOTES TEMPERATURE IN DEGREES CELSIUS.

ALZ001>011-014-016>018-020-262200-
NORTH ALABAMA
  
CITY           SKY/WX    TMP DP  RH WIND       PRES   REMARKS
MUSCLE SHOALS  SUNNY     60  20  21 SE8       30.15F                  
HUNTSVILLE     MOSUNNY   60  21  22 S13       30.14F                  
DECATUR        SUNNY     58  28  32 S8        30.15F                  
HALEYVILLE     FAIR      61  22  22 S12       30.15S                  
GADSDEN        SUNNY     60  23  24 MISG      30.17F                  
$$
 
ALZ012-013-022-023-030>036-040>044-262200-
WEST CENTRAL ALABAMA
  
CITY           SKY/WX    TMP DP  RH WIND       PRES   REMARKS
TUSCALOOSA     SUNNY     64  21  19 VRB3      30.15F                  
$$
 
ALZ015-024>027-033>036-040>044-262200-
CENTRAL ALABAMA
  
CITY           SKY/WX    TMP DP  RH WIND       PRES   REMARKS
BIRMINGHAM     MOSUNNY   63  19  18 VRB3      30.17F                  
MONTGOMERY     SUNNY     67  20  16 SE8       30.17S                  
SHELBY CO ARPT SUNNY     64  24  21 CALM      30.15F                  
MAXWELL AFB    SUNNY     64  23  20 SE5       30.16S                  
GREENVILLE     FAIR      67  18  15 VRB5      30.14F                  
$$
 
ALZ019-021-028-029-037-038-045>048-262200-
EAST CENTRAL ALABAMA
  
CITY           SKY/WX    TMP DP  RH WIND       PRES   REMARKS
ANNISTON       SUNNY     64  18  17 VRB5      30.16F                  
ALEXANDER CITY SUNNY     64  21  19 CALM      30.16F                  
AUBURN         SUNNY     64  23  21 SW6       30.17F                  
$$
 
ALZ051>064-262200-
SOUTHWEST ALABAMA
  
CITY           SKY/WX    TMP DP  RH WIND       PRES   REMARKS
MOBILE         SUNNY     68  27  21 S10       30.16R                  
BROOKLEY FIELD SUNNY     65  39  38 S10       30.17S                  
EVERGREEN      SUNNY     69  25  19 CALM      30.14F                  
$$

ALZ049-050-065>069-262200-
SOUTHEAST ALABAMA
  
CITY           SKY/WX    TMP DP  RH WIND       PRES   REMARKS
DOTHAN         SUNNY     67  27  22 SE6       30.19F                  
OZARK          SUNNY     68  27  21 E6        30.15F                  
TROY           SUNNY     68  21  16 E6        30.16S                  
EUFAULA        FAIR      70  22  16 CALM      30.15S                  
$$
  

Return to Home page


Western Regional Climate Center, wrcc@dri.edu